Tracking 28081 objects as of 27-Sep-2023
HD Live streaming from Space Station
objects crossing your sky now

ATS 6

Track ATS 6 now!
ATS 6 is classified as:


NORAD ID: 7318
Int'l Code: 1974-039A
Perigee: 35,192.5 km
Apogee: 35,450.4 km
Inclination: 4.4 °
Period: 1,412.0 minutes
Semi major axis: 41692 km
RCS: 6.3095 m2 (large)
Launch date: May 30, 1974
Source: United States (US)
Launch site: AIR FORCE EASTERN TEST RANGE (AFETR)
Your satellite tracking list
Your tracking list is empty




NASA's NSSDC Master Catalog

Two Line Element Set (TLE):
1 07318U 74039A   23269.06460378 -.00000180  00000-0  00000-0 0  9998
2 07318   4.4432 273.6673 0030923 296.0649 230.8865  1.01980363111854
Source of the keplerian elements: AFSPC